Regional Weather Roundup
Issued by NWS

Home | Current Version | Previous Version | Graphics & Text | Print | Product List | Glossary On
Versions: 1 2 3 4 5 6 7 8 9 10 11 12 13 14 15 16 17 18 19 20 21 22 23 24 25 26 27 28 29 30 31 32 33 34 35 36 37 38 39 40 41 42 43 44 45 46 47 48 49 50
000
ASUS45 KCYS 301810
RWRWY

WYOMING REGIONAL WEATHER ROUNDUP
NATIONAL WEATHER SERVICE CHEYENNE WY
1200 PM MDT SAT JUL 30 2016

NOTE:  "FAIR" INDICATES FEW OR NO CLOUDS BELOW 12,000 FEET
WITH NO SIGNIFICANT WEATHER AND/OR OBSTRUCTIONS TO VISIBILITY.

WYZ001-301900-
YELLOWSTONE NATIONAL PARK

CITY           SKY/WX    TMP DP  RH WIND       PRES   REMARKS
LK YELLOWSTONE   N/A     75  37  25 MISG      30.20F
6HR MIN TEMP:  42; 6HR MAX TEMP:  75;

W YELLOWSTONE  NOT AVBL

$$
WYZ002>013-054>058-071-098>099-301900-
NORTHERN WYOMING

CITY           SKY/WX    TMP DP  RH WIND       PRES   REMARKS
JACKSON        SUNNY     79  41  25 SW8       30.11F
CODY           FAIR      82  48  30 NE7       29.94
GREYBULL       FAIR      89  46  22 SW8       29.86F
6HR MIN TEMP:  63; 6HR MAX TEMP:  89;

WORLAND        FAIR      88  45  22 CALM      29.87F
6HR MIN TEMP:  64; 6HR MAX TEMP:  89;

SHERIDAN       FAIR      90  44  20 E10       29.87F
6HR MIN TEMP:  55; 6HR MAX TEMP:  91;

BUFFALO        FAIR      88  45  22 SE13      29.95F
6HR MIN TEMP:  58; 6HR MAX TEMP:  89;

GILLETTE       FAIR      88  44  21 S9        29.92F
6HR MIN TEMP:  59; 6HR MAX TEMP:  88;

HULETT         FAIR      86  50  28 N5        29.95F
NEWCASTLE      FAIR      81  50  34 S9G17     29.98S

$$
WYZ014>020-022>026-101>103-301900-
CENTRAL WYOMING

CITY           SKY/WX    TMP DP  RH WIND       PRES   REMARKS
BIG PINEY      FAIR      80  41  24 N14       30.19S
6HR MIN TEMP:  45; 6HR MAX TEMP:  80;

PINEDALE       FAIR      77  36  22 CALM      30.20R
DUBOIS         FAIR      81  27  13 W25G32    30.12F
LANDER         FAIR      81  47  30 N7        30.02F
6HR MIN TEMP:  56; 6HR MAX TEMP:  82;

RIVERTON       FAIR      82  46  28 VRB3      30.01F
6HR MIN TEMP:  55; 6HR MAX TEMP:  82;

CASPER         FAIR      85  48  27 S16       30.01F
6HR MIN TEMP:  52; 6HR MAX TEMP:  86;

DOUGLAS        FAIR      85  54  34 VRB6      30.00F
6HR MIN TEMP:  57; 6HR MAX TEMP:  85;


$$
WYZ021-027>030-104>119-301900-
SOUTHERN WYOMING

CITY           SKY/WX    TMP DP  RH WIND       PRES   REMARKS
EVANSTON       FAIR      85  35  16 SW13      30.19S
6HR MIN TEMP:  61; 6HR MAX TEMP:  86;

KEMMERER         N/A     82  30  15 W14       30.20S
FORT BRIDGER   FAIR      87  31  13 W10G16    30.20F
ROCK SPRINGS   FAIR      85  30  13 W9        30.16F
6HR MIN TEMP:  57; 6HR MAX TEMP:  85;

DIXON          FAIR      85  35  16 SW5       30.18F
RAWLINS        FAIR      83  35  18 S8        30.15F
6HR MIN TEMP:  51; 6HR MAX TEMP:  84;

SARATOGA       FAIR      81  36  19 E8        30.18F
LARAMIE        FAIR      79  44  28 NE7       30.18F
6HR MIN TEMP:  48; 6HR MAX TEMP:  80;

CHEYENNE       FAIR      77  59  53 SE7       30.11F
6HR MIN TEMP:  60; 6HR MAX TEMP:  78;

TORRINGTON     FAIR      83  64  52 SE8       29.98F
6HR MIN TEMP:  58; 6HR MAX TEMP:  84;

PINE BLUFFS    FAIR      82  48  30 SE17      30.06F

$$



USA.gov is the U.S. government's official web portal to all federal, state and local government web resources and services.